Location: Oakley
(37.9974°N, 121.7125°W)
Time: 11:47:44
(UTC+00:00)

Cosmos 1908 Rocket - Pass Details

Date: 13 February 2026
Orbit: 600 x 624 km, 82.5° (Epoch: 17 March)

Event Time Altitude Azimuth Distance (km) Brightness Sun altitude
Rises 13:28:46 0° 190° (S) 2,846 6.9 -18.3°
Reaches altitude 10° 13:30:58 10° 192° (SSW) 1,950 6.0 -17.9°
Maximum altitude 13:35:17 74° 278° (W) 638 3.4 -17.0°
Drops below altitude 10° 13:39:39 10° 3° (N) 1,980 6.1 -16.2°
Sets 13:41:54 0° 6° (N) 2,894 7.0 -15.7°
